{"data":{"norad_id":68155,"epoch":"2026-05-25T01:02:24.281376Z","epoch_age_seconds":64625,"freshness":"FRESH","line1":"1 68155U 26049P   26145.04333659  .00016507  00000+0  51242-3 0  9992","line2":"2 68155  97.2842 166.6248 0001562  77.4634 282.6783 15.33450681 11348","mean_motion":15.33450681,"eccentricity":0.0001562,"inclination_deg":97.2842,"raan_deg":166.6248,"arg_perigee_deg":77.4634,"mean_anomaly_deg":282.6783,"bstar":0.00051242,"rev_number":1134,"period_min":93.905856760971,"perigee_km":464.45729166817,"apogee_km":466.5952520743,"semimajor_km":6843.6632718712,"source":"CELESTRAK","updated_at":"2026-05-25T13:38:21.849226Z"}}